Location: Newark
(32.9533°N, 113.4900°W)
Time: 00:38:29
(UTC+00:00)

N. Korean satellite - Pass Details

Date: 22 March 2019
Orbit: 457 x 508 km, 97.2° (Epoch: 22 April)

Event Time Altitude Azimuth Distance (km) Brightness Sun altitude
Rises 12:34:41 0° 40° (NE) 2,531 11.0 -13.5°
Reaches altitude 10° 12:38:30 10° 83° (E) 1,661 10.8 -12.7°
Maximum altitude 12:39:09 10° 93° (E) 1,639 10.6 -12.6°
Drops below altitude 10° 12:39:47 10° 104° (ESE) 1,664 10.4 -12.4°
Sets 12:43:38 0° 147° (SSE) 2,554 10.6 -11.6°
